Wind_Speed
8 7 4 1 3 4 5 7 9 11 12 14 7 6 7 6 8 7 7 7 7 6 5 9 12 16 20 17 15 17 18 19 15 18 17 14 13 12 11 11 12 13 14
7 5 4 4 3 3 5 7 10 11 12 13 13 9 8 8 10 10 9 7 7 8 9 9 11 13 18 17 15 15 16 17 19 19 17 15 15 13 13 12 12 12 14
7 8 9 7 4 2 3 6 9 12 13 13 13 13 12 12 10 11 11 11 11 10 12 13 14 12 15 13 13 14 15 18 16 17 18 15 15 13 12 12 12 11 12
9 10 10 10 7 4 1 1 5 8 11 13 14 13 14 12 11 7 10 14 15 15 14 15 17 16 18 17 14 17 17 17 18 17 18 16 16 16 12 12 13 13 14
12 12 12 10 9 7 4 3 6 8 9 12 13 14 13 11 8 12 12 9 9 9 10 13 17 19 21 21 15 17 17 15 17 17 15 16 16 14 15 12 11 15 14
9 7 6 7 7 5 4 4 6 8 10 14 16 15 15 14 16 15 15 12 13 13 12 12 12 14 15 16 17 18 17 13 13 14 15 15 18 14 16 14 12 9 5
9 7 7 8 10 6 7 6 6 10 13 16 15 14 15 15 16 15 15 15 15 15 15 15 15 14 15 14 14 15 16 17 18 15 15 17 17 18 18 16 14 12 13
6 5 7 8 11 7 5 6 8 10 13 14 14 13 14 14 14 15 17 13 15 16 16 16 16 16 15 14 11 10 11 12 14 14 17 21 20 17 20 19 14 14 14
6 7 6 4 2 4 6 8 9 11 13 15 15 14 12 13 13 19 21 16 17 17 16 15 15 15 16 14 12 11 12 13 14 16 18 19 18 16 15 12 15 12 13
2 2 3 4 5 6 8 11 12 12 16 16 17 15 15 13 17 21 22 18 18 15 12 11 11 10 15 16 15 13 13 13 10 9 9 12 14 14 15 16 14 14 11
5 5 6 7 7 8 10 10 12 14 15 17 16 17 14 13 16 20 19 17 17 18 17 16 12 14 12 11 15 15 15 9 8 10 10 11 11 10 10 12 12 15 12
8 8 8 8 9 11 13 13 14 14 17 18 17 17 17 16 19 19 20 18 20 16 18 18 16 17 18 16 14 16 18 15 11 10 11 12 12 10 8 8 9 13 16
10 11 12 13 13 12 13 14 15 15 15 17 17 18 19 18 18 19 20 20 18 16 18 18 21 21 20 18 17 16 17 15 14 13 14 14 12 10 9 10 11 13 15
11 11 12 13 14 12 13 12 13 14 16 16 17 18 19 19 17 16 18 20 20 18 18 19 22 22 20 18 18 15 16 15 15 17 17 15 13 13 14 12 12 13 14
9 10 11 11 13 14 13 12 12 11 13 15 15 17 19 18 16 26 26 24 24 24 28 21 19 18 18 18 16 15 14 13 14 17 17 17 17 16 16 13 12 12 16
11 11 11 13 13 13 14 15 12 14 16 16 16 18 18 20 23 24 24 25 24 24 18 19 20 18 17 17 16 17 17 16 18 19 19 20 20 19 19 17 15 14 17
11 11 10 11 13 14 15 17 18 18 17 16 18 20 22 24 24 25 29 25 21 19 15 18 14 12 13 12 13 15 16 16 16 17 18 18 19 20 19 19 17 16 17
10 11 10 11 13 14 15 17 18 21 22 22 21 22 21 25 28 29 26 24 16 14 13 14 14 14 14 15 16 16 16 17 16 18 19 20 19 19 17 17 17 18 18
10 11 11 11 12 14 15 16 17 19 21 23 25 22 23 29 28 23 23 16 18 18 17 15 15 16 17 18 19 19 20 19 19 19 21 20 20 19 17 18 19 20 21
10 11 10 10 12 14 15 16 17 18 20 21 23 24 28 31 26 25 23 24 24 24 23 21 19 19 19 19 20 23 26 27 26 21 23 23 22 21 18 19 19 19 18
10 10 10 11 12 14 14 15 16 18 19 21 22 23 28 25 23 22 22 22 22 24 25 24 24 27 28 26 22 22 25 26 23 22 20 20 20 20 20 21 21 21 20
8 9 10 11 10 12 13 14 14 16 17 18 21 24 27 23 23 24 24 24 25 25 24 25 26 24 21 22 26 20 21 25 27 22 19 19 19 20 21 21 21 20 20
6 8 9 9 9 9 11 12 12 13 16 17 18 21 23 24 25 26 27 29 29 28 28 28 27 27 25 22 21 25 26 25 23 18 21 23 21 19 21 22 20 20 20
6 7 8 8 9 9 9 11 12 12 14 15 17 19 21 23 26 28 29 30 31 31 30 28 28 27 28 27 25 26 22 22 24 27 23 24 26 29 28 20 21 22 24
9 9 10 10 10 10 11 11 12 12 14 15 17 18 20 22 24 27 30 31 32 32 31 30 28 26 26 26 27 28 29 27 27 26 28 28 28 29 27 24 24 23 24
13 13 12 11 11 11 11 12 13 14 15 17 17 17 18 20 23 27 31 33 35 34 35 32 31 31 29 27 25 27 29 31 32 32 30 30 30 28 26 26 27 27 26
Wind_Direction
141 140 159 80 34 22 14 5 4 10 11 7 337 310 318 272 235 236 244 252 269 298 295 265 266 267 255 240 235 235 236 238 251 260 261 262 264 259 247 262 258 249 252
150 126 130 125 104 37 17 20 16 14 16 18 22 4 307 284 253 249 263 259 254 266 299 318 294 288 266 253 240 233 231 238 246 259 260 255 257 259 268 263 251 248 243
175 163 156 153 131 93 43 27 18 13 9 11 19 14 359 354 283 258 261 270 272 286 302 303 290 293 269 258 255 247 244 246 244 257 265 255 257 258 267 263 246 246 239
202 192 176 164 160 160 160 345 1 5 359 356 358 359 3 1 9 344 294 286 277 287 297 296 296 287 273 268 265 273 267 255 241 243 255 256 258 256 252 256 255 248 243
206 205 194 180 177 200 223 302 328 339 346 347 344 340 339 341 347 339 338 331 328 309 291 260 255 265 271 272 260 262 258 247 240 247 250 248 247 250 247 250 250 264 252
212 228 243 231 227 238 274 304 320 327 333 338 334 331 328 325 316 319 320 310 304 301 297 289 280 273 276 277 278 266 250 244 245 235 240 239 245 252 268 255 254 258 264
217 237 256 278 280 278 283 288 311 321 327 332 330 332 327 326 330 328 322 310 298 291 286 282 280 273 274 275 277 273 262 248 244 249 250 245 247 261 266 260 248 244 252
214 250 272 284 295 298 290 304 311 317 323 323 319 324 326 326 336 346 343 329 304 291 282 272 267 269 268 273 275 270 260 255 254 250 254 262 267 263 266 261 258 261 258
234 259 279 325 338 307 307 309 307 308 311 312 307 309 312 313 327 335 336 328 320 303 292 285 278 276 272 270 271 267 267 266 265 261 258 261 263 263 266 258 247 224 255
28 12 29 1 332 325 322 320 311 306 300 299 296 298 302 298 315 325 330 325 313 315 303 299 306 297 279 270 259 261 268 268 260 258 260 262 261 258 253 253 240 229 234
35 37 28 6 356 347 335 333 323 315 305 298 295 292 291 296 310 319 322 323 315 306 297 294 296 299 308 289 259 252 253 260 255 257 266 268 266 260 253 255 240 230 233
30 22 10 359 349 339 334 328 324 320 312 310 309 304 299 305 310 312 312 311 313 304 297 293 296 298 295 292 279 254 252 255 254 259 263 265 262 255 252 250 248 245 247
10 2 355 350 347 338 334 332 329 325 318 314 311 306 304 306 306 312 318 317 314 309 300 297 301 305 305 288 280 269 253 249 251 255 257 259 251 250 264 276 271 263 260
8 1 357 352 343 341 342 335 331 328 325 318 314 307 310 311 318 321 322 316 312 309 307 305 303 301 296 286 278 274 263 252 252 260 266 266 266 267 269 264 266 267 263
4 3 359 347 345 349 341 332 332 330 333 321 316 320 317 317 319 320 315 309 305 301 304 298 294 294 289 283 277 275 270 263 255 259 259 260 263 265 262 258 260 256 251
8 1 359 354 352 344 337 334 333 333 331 329 328 328 325 319 322 324 323 311 303 302 294 282 282 284 286 289 287 286 280 270 266 260 257 260 262 259 257 254 253 253 256
18 9 3 1 359 356 352 344 338 339 340 339 338 335 334 335 330 328 329 328 314 305 280 281 284 292 294 290 286 288 289 287 286 273 266 263 261 259 254 253 252 252 255
27 11 8 8 3 357 354 347 343 342 340 340 341 340 340 336 327 324 329 330 319 313 294 293 292 294 291 290 288 283 280 278 275 272 272 265 262 259 256 246 246 246 251
27 17 17 18 12 7 3 358 353 348 344 341 341 344 345 337 337 339 336 322 312 302 295 296 294 293 292 290 285 283 281 275 268 267 267 266 266 262 248 245 246 244 250
31 22 20 17 12 8 6 2 355 353 350 346 344 343 345 346 348 345 339 332 329 327 328 322 304 298 292 288 287 289 289 280 269 258 258 261 262 262 254 254 250 248 245
30 26 26 24 20 14 10 8 4 357 351 345 340 339 337 338 337 336 333 331 326 322 318 317 315 310 306 304 300 307 303 284 267 264 262 266 263 259 258 258 255 252 250
31 29 24 21 14 10 2 1 358 354 349 342 339 338 337 338 332 328 327 324 320 317 314 310 305 301 296 296 301 294 303 306 302 308 283 261 259 259 259 257 255 255 254
12 15 14 9 2 356 2 3 0 359 355 351 344 340 337 335 332 331 328 326 323 320 315 312 307 302 301 296 288 291 293 289 294 292 305 297 302 292 254 251 251 255 252
323 333 337 339 340 342 343 344 346 348 348 350 350 345 341 338 335 333 332 330 328 325 321 316 308 302 299 297 292 293 288 283 286 287 292 286 288 284 282 283 261 256 251
297 302 302 309 317 325 326 325 327 331 333 337 339 342 339 347 346 345 342 339 335 331 329 327 322 317 310 302 295 291 291 290 284 280 280 280 275 275 270 266 263 265 261
289 289 291 293 294 301 308 311 313 315 321 325 329 329 328 329 342 352 350 345 344 340 338 335 335 336 332 329 325 316 302 292 285 281 279 274 269 262 257 255 255 255 251
Height
805 807 809 808 808 808 807 806 804 802 799 795 791 789 787 786 785 785 785 784 783 781 780 782 781 781 782 783 785 786 786 787 784 783 784 785 784 783 783 782 782 781 782
804 806 807 808 808 807 806 804 801 799 796 793 790 787 785 783 784 782 782 779 778 778 778 775 776 777 778 779 779 780 781 781 781 779 780 780 779 780 779 778 778 777 778
803 804 805 806 806 805 804 802 799 797 795 792 790 788 785 782 781 780 779 778 777 775 774 773 775 773 775 775 776 776 775 777 777 777 774 775 774 775 775 774 773 773 773
804 804 804 803 803 803 801 799 797 795 793 792 790 787 784 782 780 777 777 774 772 770 770 768 767 768 770 771 769 770 768 770 771 772 771 770 770 770 770 770 770 770 770
802 803 801 800 799 798 797 798 797 795 793 791 789 787 785 783 780 778 775 773 772 770 768 766 764 765 766 766 765 764 764 764 764 764 763 764 764 765 764 764 765 766 766
801 803 803 801 798 796 795 794 794 793 791 789 787 784 782 780 778 775 773 771 769 768 766 763 761 760 760 759 759 759 759 758 758 759 759 759 758 759 761 760 761 762 762
799 800 800 800 797 794 794 793 792 791 790 787 784 781 779 777 774 771 769 768 766 764 762 759 757 757 755 754 753 752 752 752 753 755 754 754 753 753 755 756 756 757 757
796 797 796 793 792 791 791 792 791 789 788 786 783 780 776 775 773 771 768 765 763 760 757 755 754 752 751 749 748 747 747 747 747 748 748 748 748 750 750 751 752 752 752
794 794 793 791 791 791 791 790 789 788 786 784 782 778 775 772 771 769 765 763 760 756 753 750 748 746 744 744 743 742 743 742 742 743 743 743 744 744 745 746 745 747 745
793 793 792 791 791 790 789 788 787 785 785 782 778 777 772 769 767 766 763 760 757 754 751 748 745 743 741 741 741 741 739 738 738 739 740 739 739 739 739 740 740 741 742
794 793 792 791 792 790 788 786 785 783 780 779 774 773 770 766 764 762 759 759 757 753 749 745 743 741 739 737 737 738 737 736 736 736 736 736 736 735 735 735 735 735 736
795 795 793 793 791 789 787 785 783 780 777 773 771 768 765 762 761 758 756 755 754 750 746 743 741 738 736 734 733 732 733 733 733 733 733 732 731 731 731 731 731 731 732
796 795 793 790 789 788 786 783 780 778 776 772 769 766 763 761 758 755 751 751 749 746 743 740 736 733 731 729 728 728 728 728 728 728 727 726 726 727 726 726 726 726 726
795 793 792 791 791 788 785 784 781 778 776 773 771 767 762 758 754 752 750 749 746 743 739 735 731 728 727 725 724 723 722 723 723 722 721 722 722 722 722 721 721 722 721
798 795 794 792 789 783 785 785 782 780 779 775 771 767 762 756 754 752 750 747 743 739 734 731 727 724 721 719 718 718 718 717 716 716 716 716 716 716 716 715 716 716 716
796 796 794 792 788 788 785 782 781 778 776 773 769 766 761 757 752 749 745 740 736 733 729 725 722 720 717 715 714 713 712 712 711 710 710 709 708 708 708 709 710 710 707
799 798 795 793 791 788 785 782 778 774 771 769 766 762 758 754 749 745 740 735 730 727 724 720 718 716 715 714 712 711 708 707 706 705 703 702 701 700 701 701 702 702 701
801 802 798 793 791 788 785 783 779 774 769 765 763 760 756 752 747 741 736 730 727 723 721 718 715 713 711 710 708 707 704 702 701 700 697 695 693 692 693 694 694 694 694
803 802 798 795 793 790 787 784 781 777 773 767 762 759 756 750 742 737 733 729 725 721 717 714 711 709 707 704 702 700 698 695 694 693 691 689 687 686 686 686 686 686 686
803 801 799 797 794 791 788 786 783 779 774 770 764 759 754 747 741 736 733 729 724 720 715 710 707 704 702 699 696 693 690 687 684 683 682 681 680 679 678 677 677 677 677
805 803 800 798 794 792 790 787 783 779 775 771 766 761 757 751 745 739 734 729 724 719 713 709 704 700 697 694 692 688 683 678 677 676 675 673 673 672 672 670 669 668 668
805 802 800 797 795 793 791 787 783 779 776 772 767 761 756 751 745 738 732 727 721 716 710 705 699 695 691 688 686 682 679 676 672 669 666 665 665 665 664 663 662 661 660
804 801 799 797 795 792 789 786 782 779 775 771 766 760 755 749 743 737 730 723 716 710 704 699 693 687 684 681 679 676 672 669 668 665 661 660 659 656 655 655 654 653 652
802 800 798 796 793 790 787 784 780 777 773 768 764 760 754 748 741 735 728 721 713 705 699 693 687 682 676 673 670 667 665 663 661 658 657 654 652 650 649 647 646 644 644
799 797 795 793 790 787 784 781 778 774 770 766 761 757 751 745 740 734 727 719 711 703 695 688 682 676 670 666 662 659 655 653 652 650 648 646 643 641 640 639 638 637 635
795 793 791 789 786 784 781 778 775 771 767 763 758 753 748 742 736 731 724 717 709 701 693 685 678 672 666 660 654 649 645 641 638 637 636 634 631 630 629 628 628 628 626